Weather History for Monterrey Gen Maria, Mexico

Change the Weather History Date:

Wednesday, March 13, 2013

  Actual Average Record
Temperature  
Mean Temperature 66 °F -  
Max Temperature 80 °F 79 °F 98 °F (2008)
Min Temperature 51 °F 57 °F 46 °F (1998)
Growing Degree Days 16 (Base 50)    
Moisture  
Dew Point 35 °F    
Average Humidity 35    
Maximum Humidity 62    
Minimum Humidity 14    
Precipitation  
Precipitation 0.00 in - - ()
Sea Level Pressure  
Sea Level Pressure 30.28 in    
Wind  
Wind Speed 5 mph ()    
Max Wind Speed 18 mph    
Max Gust Speed -    
Visibility 13.4 miles    
Events      
Averages and records for this station are not official NWS values.
T = Trace of Precipitation, MM = Missing Value Source: Averaged Metar Reports

Daily Weather History Graph

Daily Weather History Graph

Search for Another Location

Airport:

Trip Planner

Search our weather history database for the weather conditions in past years. The results will help you decide how hot, cold, wet, or windy it might be!

Date:

Astronomy

Mar. 13, 2013 Rise Set
Actual Time 6:51 AM CST 6:48 PM CST
Civil Twilight 6:28 AM CST 7:11 PM CST
Nautical Twilight 6:01 AM CST 7:38 PM CST
Astronomical Twilight 5:35 AM CST 8:04 PM CST
Moon 7:47 AM CST (3/13) 8:48 PM CST (3/13)
Length of Visible Light 12h 43m
Length of Day
11h 57m
Waxing Crescent, 4% of the Moon is Illuminated
Mar 13
Waxing Crescent
Mar 19
First Quarter
Mar 27
Full
Apr 2
Last Quarter
Apr 10
New

Hourly Weather History & Observations

Time (CST) Temp. Dew Point Humidity Pressure Visibility Wind Dir Wind Speed Gust Speed Precip Events Conditions
12:46 AM 59.0 °F 30.2 °F 34% 30.21 in 15.0 mi East 5.8 mph - N/A   Clear
1:44 AM 57.2 °F 33.8 °F 41% 30.22 in 15.0 mi Calm Calm - N/A   Clear
2:43 AM 55.4 °F 33.8 °F 44% 30.25 in 15.0 mi Calm Calm - N/A   Clear
4:14 AM 53.6 °F 33.8 °F 47% 30.22 in 15.0 mi Calm Calm - N/A   Clear
4:40 AM 53.6 °F 33.8 °F 47% 30.23 in 15.0 mi Calm Calm - N/A   Clear
5:40 AM 53.6 °F 35.6 °F 51% 30.27 in 15.0 mi Calm Calm - N/A   Scattered Clouds
6:41 AM 51.8 °F 39.2 °F 62% 30.28 in 15.0 mi Calm Calm - N/A   Scattered Clouds
7:50 AM 57.2 °F 41.0 °F 55% 30.30 in 10.0 mi Calm Calm - N/A   Mostly Cloudy
8:50 AM 64.4 °F 41.0 °F 42% 30.34 in 10.0 mi Calm Calm - N/A   Mostly Cloudy
9:40 AM 64.4 °F 44.6 °F 49% 30.35 in 10.0 mi East 8.1 mph - N/A   Mostly Cloudy
10:45 AM 69.8 °F 42.8 °F 38% 30.35 in 10.0 mi Calm Calm - N/A   Mostly Cloudy
11:48 AM 73.4 °F 41.0 °F 31% 30.35 in 12.0 mi ESE 11.5 mph - N/A   Mostly Cloudy
12:45 PM 77.0 °F 37.4 °F 24% 30.30 in 12.0 mi East 12.7 mph - N/A   Mostly Cloudy
1:40 PM 78.8 °F 33.8 °F 20% 30.27 in 12.0 mi East 11.5 mph - N/A   Mostly Cloudy
2:40 PM 78.8 °F 32.0 °F 18% 30.27 in 12.0 mi NNE 11.5 mph - N/A   Mostly Cloudy
3:45 PM 80.6 °F 26.6 °F 14% 30.20 in 12.0 mi East 15.0 mph - N/A   Mostly Cloudy
4:42 PM 78.8 °F 26.6 °F 15% 30.20 in 12.0 mi East 12.7 mph - N/A   Mostly Cloudy
5:42 PM 78.8 °F 24.8 °F 14% 30.32 in 15.0 mi East 12.7 mph - N/A   Mostly Cloudy
6:44 PM 77.0 °F 26.6 °F 16% 30.22 in 15.0 mi East 11.5 mph - N/A   Mostly Cloudy
7:48 PM 73.4 °F 30.2 °F 20% 30.24 in 15.0 mi East 13.8 mph - N/A   Mostly Cloudy
8:47 PM 69.8 °F 32.0 °F 25% 30.35 in 15.0 mi ESE 18.4 mph - N/A   Mostly Cloudy
9:45 PM 66.2 °F 32.0 °F 28% 30.31 in 15.0 mi ESE 11.5 mph - N/A   Scattered Clouds
10:48 PM 64.4 °F 37.4 °F 37% 30.32 in 15.0 mi East 9.2 mph - N/A   Clear
11:48 PM 60.8 °F 46.4 °F 59% 30.34 in 15.0 mi East 6.9 mph - N/A   Clear